Flag for France Weather past 2 weeks in Amsterdam Island, French Southern Territories, France

Now
67 °F

Mild.


Feels Like: 67 °F
Forecast: 64 / 68 °F
Wind: 12 mph from Northwest

Location: Martin De Vivies Ile Amsterdam

Current Time: Jan 28, 2015 at 12:39:09 PM

Latest Report: Jan 28, 2015 at 12:00 PM


Visibility: N/A

Pressure: 30.01 "Hg

Humidity: 50%

Dew point: 48 °F

Location of Amsterdam IslandLocation

Historic Weather in Amsterdam Island — Graph

°F

Amsterdam Island temperature yesterday

Maximum temperature yesterday: 68 °F (at 2:00 PM)
Minimum temperature yesterday: 59 °F (at 11:00 PM)
Average temperature yesterday: 64 °F

Past Weeks' High & Low Weather Summary

 TemperatureHumidityPressure
High74 °F (Jan 15, 11:00 AM)95% (Jan 23, 3:00 PM)30.40 "Hg (Jan 23, 3:00 PM)
Low48 °F (Jan 18, 3:00 AM)43% (Jan 18, 2:00 PM)29.83 "Hg (Jan 23, 2:00 PM)
Average63 °F70%30.09 "Hg
* Reported Jan 13 11:00 AM — Jan 28 11:00 AM, Amsterdam Island, Weather by CustomWeather, © 2014

Note: Actual official high and low records may vary slightly from our data, if they occured in-between our weather recording intervals... More about our weather records

Advertising

Amsterdam Island weather history for previous 24 hours

 ConditionsComfort  
Time TempWeatherWind HumidityBarometerVisibility
11:00 AM
Jan 28
69 °FMild.12 mph49%30.03 "HgN/A
10:00 AM65 °FMild.12 mph52%30.03 "HgN/A
9:00 AM66 °FMild.8 mph50%30.03 "HgN/A
7:00 AM61 °FCool.7 mph66%30.05 "HgN/A
6:00 AM59 °FCool.3 mph69%30.02 "HgN/A
5:00 AM57 °FCool.6 mph73%30.00 "HgN/A
4:00 AM57 °FCool.5 mph69%29.99 "HgN/A
3:00 AM57 °FCool.6 mph73%29.98 "HgN/A
1:00 AM58 °FCool.5 mph70%29.97 "HgN/A
12:00 AM57 °FCool.3 mph72%29.97 "HgN/A
11:00 PM
Jan 27
59 °FCool.7 mph70%29.97 "HgN/A
10:00 PM60 °FCool.6 mph67%29.96 "HgN/A
9:00 PM60 °FCool.8 mph69%29.95 "HgN/A
8:00 PM61 °FCool.7 mph70%29.93 "HgN/A
7:00 PM61 °FCool.7 mph73%29.91 "HgN/A
6:00 PM65 °FMild.13 mph73%29.89 "HgN/A
5:00 PM67 °FMild.14 mph73%29.87 "HgN/A
4:00 PM66 °FMild.21 mph86%29.87 "HgN/A
3:00 PM68 °FMild.22 mph80%29.87 "HgN/A
2:00 PM68 °FMild.20 mph85%29.87 "HgN/A
1:00 PM67 °FMild.22 mph90%29.87 "HgN/A
12:00 PM65 °FMild.23 mph92%29.87 "HgN/A
Weather by CustomWeather, © 2014

See weather overviewHow to use our weather pages